Location: Dackenheim
(49.5215°N, 8.1854°E)
Time: 21:24:31
(UTC+00:00)

ASTEX 1 - Pass Details

Date: 19 May 2025
Orbit: 715 x 734 km, 92.7° (Epoch: 15 June)

Event Time Altitude Azimuth Distance (km) Brightness Sun altitude
Rises 23:17:26 0° 7° (N) 3,162 8.2 -20.5°
Reaches altitude 10° 23:19:44 10° 9° (N) 2,238 7.1 -20.5°
Maximum altitude 23:24:41 74° 94° (E) 766 3.4 -20.5°
Enters shadow 23:26:10 45° 167° (SSE) 993 3.6 -20.5°
